This demonstration page uses our WeatherBlox Daily Observations layout. Learn more.

Hourly Observations for March 14, 2019

Temp ( °F °C ) Dew Point ( °F °C ) Humidity (%) Winds ( mph kmh ) Pressure ( in mb ) Visibility ( mi km ) Precip ( " mm )
12:15 am 00:15 Windy with Snow Likely 31 -0.6 30 -1 97 97 NNW 35 56 29.2 989 1.25 2.011675 0.01 0.254
12:35 am 00:35 Windy with Snow Likely 31 -0.6 30 -1 97 97 NNW 32 52 29.21 989 1.25 2.011675 0.02 0.508
12:55 am 00:55 Very Windy with Snow Likely 31 -0.7 30 -1.1 97 97 NNW 39 63 29.21 989 1 1.60934 0.03 0.762
1:15 am 01:15 Cloudy with Snow 31 -0.8 30 -1.2 97 97 NNW 33 54 29.23 990 1 1.60934 0.01 0.254
1:35 am 01:35 Cloudy with Snow 30 -1 30 -1.2 99 99 NNW 35 56 29.24 990 0.75 1.207005 0.02 0.508
1:55 am 01:55 Cloudy with Snow 30 -1 30 -1.3 98 98 NNW 36 57 29.25 991 1 1.60934 0.02 0.508
2:15 am 02:15 Cloudy with Snow 30 -1 30 -1.2 99 99 NNW 32 52 29.27 991 0.75 1.207005 0 0
2:35 am 02:35 Cloudy with Snow 30 -1 30 -1.2 99 99 NNW 36 57 29.29 992 0.5 0.80467 0.01 0.254
2:55 am 02:55 Cloudy with Snow 30 -1 30 -1.2 99 99 NNW 36 57 29.31 993 0.75 1.207005 0.01 0.254
3:15 am 03:15 Cloudy with Snow 30 -1 30 -1.2 99 99 NNW 32 52 29.33 993 1 1.60934 0.01 0.254
3:35 am 03:35 Cloudy with Snow 30 -1 30 -1.3 98 98 NNW 29 46 29.35 994 0.75 1.207005 0.01 0.254
3:55 am 03:55 Cloudy with Snow 30 -1 30 -1.2 99 99 NNW 29 46 29.37 995 1 1.60934 0.02 0.508
4:15 am 04:15 Cloudy with Snow 30 -1.1 30 -1.3 99 99 NNW 37 59 29.38 995 0.75 1.207005 0 0
4:35 am 04:35 Cloudy with Snow 30 -1 30 -1.2 99 99 NNW 37 59 29.39 995 0.75 1.207005 0 0
4:55 am 04:55 Cloudy with Snow 31 -0.8 30 -1.1 98 98 NNW 35 56 29.41 996 0.75 1.207005 0.01 0.254
5:15 am 05:15 Cloudy with Snow 31 -0.7 30 -1.2 96 96 NNW 36 57 29.43 997 0.75 1.207005 0 0
5:35 am 05:35 Cloudy with Snow 31 -0.6 30 -1.1 96 96 NNW 31 50 29.45 997 1 1.60934 0 0
5:55 am 05:55 Windy with Snow Likely 31 -0.5 30 -1 96 96 NW 31 50 29.48 998 1.5 2.41401 0 0
6:15 am 06:15 Windy with Snow Likely 31 -0.5 30 -1.2 95 95 NW 35 56 29.49 999 1.25 2.011675 0.01 0.254
6:35 am 06:35 Windy with Snow Likely 31 -0.4 29 -1.5 92 92 NNW 30 48 29.52 1000 2 3.21868 0.01 0.254
6:55 am 06:55 Cloudy with Mist and Fog 32 0 29 -1.8 88 88 NW 36 57 29.53 1000 4 6.43736 0.01 0.254
7:15 am 07:15 Windy with Snow Likely 32 -0.1 28 -2 87 87 NNW 36 57 29.54 1000 3 4.82802 0 0
7:35 am 07:35 Windy with Snow Likely 32 0 28 -2 87 87 NNW 36 57 29.56 1001 4 6.43736 0 0
7:55 am 07:55 Cloudy with Mist and Fog 32 0 28 -2.1 86 86 NNW 30 48 29.57 1001 5 8.0467 0 0
8:15 am 08:15 Cloudy with Mist and Fog 32 0.1 28 -2 86 86 NNW 33 54 29.59 1002 4 6.43736 0 0
8:35 am 08:35 Cloudy with Haze 33 0.5 28 -2 84 84 NNW 38 61 29.61 1003 4 6.43736 0 0
8:55 am 08:55 Cloudy with Mist and Fog 33 0.6 29 -1.8 84 84 NNW 35 56 29.61 1003 3 4.82802 0 0
9:15 am 09:15 Cloudy with Mist and Fog 33 0.6 29 -1.6 85 85 NNW 32 52 29.62 1003 2.5 4.02335 0 0
9:35 am 09:35 Cloudy with Mist and Fog 33 0.7 29 -1.8 84 84 NNW 38 61 29.63 1003 5 8.0467 0 0
9:55 am 09:55 Cloudy with Haze 33 0.8 28 -2 82 82 NNW 43 69 29.66 1004 3 4.82802 0 0
10:15 am 10:15 Cloudy with Haze 34 1 28 -2 81 81 NNW 30 48 29.67 1005 5 8.0467 0 0
10:35 am 10:35 Cloudy 34 1 28 -2.1 80 80 NNW 37 59 29.7 1006 7 11.26538 0 0
10:55 am 10:55 Cloudy 34 1 28 -2.1 80 80 NNW 39 63 29.71 1006 10 16.0934 0 0
11:15 am 11:15 Cloudy with Haze 34 1 28 -2.2 79 79 NNW 33 54 29.74 1007 5 8.0467 0 0
11:35 am 11:35 Cloudy 34 1 28 -2.3 79 79 NNW 32 52 29.76 1008 7 11.26538 0 0
11:55 am 11:55 Cloudy 34 0.9 28 -2.3 79 79 NNW 32 52 29.79 1009 10 16.0934 0 0
12:15 pm 12:15 Cloudy 33 0.8 27 -2.6 78 78 NNW 31 50 29.82 1010 7 11.26538 0 0
12:35 pm 12:35 Cloudy 34 1 28 -2.5 78 78 NNW 33 54 29.82 1010 10 16.0934 0 0
12:55 pm 12:55 Cloudy 34 1.2 28 -2.5 77 77 NNW 28 44 29.83 1010 10 16.0934 0 0
1:15 pm 13:15 Cloudy 35 1.4 28 -2.3 77 77 NNW 31 50 29.85 1011 10 16.0934 0 0
1:35 pm 13:35 Cloudy 35 1.5 28 -2.4 76 76 NW 32 52 29.87 1012 10 16.0934 0 0
1:55 pm 13:55 Cloudy 35 1.5 28 -2.2 77 77 NW 29 46 29.88 1012 10 16.0934 0 0
2:15 pm 14:15 Cloudy 35 1.5 28 -2.2 77 77 NNW 32 52 29.89 1012 10 16.0934 0 0
2:35 pm 14:35 Cloudy 35 1.4 28 -2 78 78 NNW 29 46 29.91 1013 10 16.0934 0 0
2:55 pm 14:55 Cloudy 34 1.3 28 -2 79 79 NNW 28 44 29.92 1013 10 16.0934 0 0
3:15 pm 15:15 Cloudy 34 1.3 28 -2.1 78 78 NW 30 48 29.93 1014 10 16.0934 0 0
3:35 pm 15:35 Cloudy 35 1.7 28 -2.5 74 74 NNW 29 46 29.94 1014 10 16.0934 0 0
3:55 pm 15:55 Mostly Cloudy 36 2 28 -2.4 73 73 NNW 29 46 29.96 1014 10 16.0934 0 0
4:15 pm 16:15 Mostly Cloudy 36 2.1 27 -2.9 70 70 NNW 26 43 29.98 1015 10 16.0934 0 0
4:35 pm 16:35 Partly Cloudy 36 2.2 26 -3.5 66 66 NNW 28 44 30 1016 10 16.0934 0 0
4:55 pm 16:55 Sunny 37 2.5 24 -4.5 60 60 NNW 28 44 30.02 1017 10 16.0934 0 0
5:15 pm 17:15 Sunny 36 2.3 24 -4.7 60 60 NNW 26 43 30.04 1017 10 16.0934 0 0
5:35 pm 17:35 Sunny 36 2.3 24 -4.3 62 62 NNW 30 48 30.06 1018 10 16.0934 0 0
5:55 pm 17:55 Sunny 37 2.5 25 -3.9 63 63 NNW 25 41 30.08 1019 10 16.0934 0 0
6:15 pm 18:15 Sunny 36 2.2 25 -3.9 64 64 NNW 29 46 30.09 1019 10 16.0934 0 0
6:35 pm 18:35 Sunny 36 2.1 25 -3.8 65 65 NNW 28 44 30.11 1019 10 16.0934 0 0
6:55 pm 18:55 Sunny 35 1.8 25 -3.9 66 66 NNW 29 46 30.13 1020 10 16.0934 0 0
7:15 pm 19:15 Sunny 35 1.7 24 -4.2 65 65 NNW 23 37 30.14 1021 10 16.0934 0 0
7:35 pm 19:35 Sunny 35 1.5 24 -4.3 66 66 NNW 20 31 30.15 1021 10 16.0934 0 0
7:55 pm 19:55 Clear 35 1.4 24 -4.5 65 65 NNW 25 41 30.17 1022 10 16.0934 0 0
8:15 pm 20:15 Clear 34 1.3 24 -4.6 65 65 NNW 22 35 30.18 1022 10 16.0934 0 0
8:35 pm 20:35 Clear 34 1.1 24 -4.6 66 66 NW 16 26 30.21 1023 10 16.0934 0 0
8:55 pm 20:55 Clear 34 1 24 -4.5 67 67 NW 18 30 30.22 1023 10 16.0934 0 0
9:15 pm 21:15 Clear 34 1 24 -4.6 67 67 NW 18 30 30.23 1024 10 16.0934 0 0
9:35 pm 21:35 Clear 33 0.8 24 -4.7 67 67 NW 20 31 30.24 1024 10 16.0934 0 0
9:55 pm 21:55 Clear 33 0.6 24 -4.6 68 68 NW 18 30 30.25 1024 10 16.0934 0 0
10:15 pm 22:15 Clear 33 0.5 24 -4.5 69 69 NW 20 31 30.25 1024 10 16.0934 0 0
10:35 pm 22:35 Clear 32 0.2 24 -4.5 71 71 NW 21 33 30.26 1025 10 16.0934 0 0
10:55 pm 22:55 Clear 32 0.1 24 -4.5 72 72 NW 20 31 30.27 1025 10 16.0934 0 0
11:15 pm 23:15 Clear 32 0 24 -4.5 72 72 NW 23 37 30.29 1026 10 16.0934 0 0
11:35 pm 23:35 Clear 32 -0.2 24 -4.3 74 74 NW 18 30 30.3 1026 10 16.0934 0 0
11:55 pm 23:55 Clear 31 -0.4 24 -4.2 76 76 NW 17 28 30.31 1026 10 16.0934 0 0

Powered by AerisWeather